Cincinnati, OH

6:03 AM EST on February 21, 2017 (GMT -0500)
Cincinnati Municipal-Lunken

Weather History for KLUK - December, 2012

Change the Weather History Date:

Friday, December 21, 2012

  Actual Average Record
Temperature  
Mean Temperature 30 °F -  
Max Temperature 33 °F 39 °F 70 °F (1967)
Min Temperature 28 °F 24 °F -10 °F (1989)
Degree Days  
Heating Degree Days 34    
Moisture  
Dew Point 23 °F    
Average Humidity 76    
Maximum Humidity 85    
Minimum Humidity 72    
Precipitation  
Precipitation 0.00 in - - ()
Sea Level Pressure  
Sea Level Pressure 29.86 in    
Wind  
Wind Speed 22 mph (West)    
Max Wind Speed 28 mph    
Max Gust Speed 38 mph    
Visibility 9 miles    
Events Snow    
Averages and records for this station are not official NWS values.
T = Trace of Precipitation, MM = Missing Value Source: NWS Daily Summary

Daily Weather History Graph

Daily Weather History Graph

Search for Another Location

Airport or City:

Trip Planner

Search our weather history database for the weather conditions in past years. The results will help you decide how hot, cold, wet, or windy it might be!

Date:

Astronomy

Dec. 21, 2012 Rise Set
Actual Time 7:53 AM EST 5:18 PM EST
Civil Twilight 7:23 AM EST 5:48 PM EST
Nautical Twilight 6:49 AM EST 6:22 PM EST
Astronomical Twilight 6:17 AM EST 6:54 PM EST
Moon 1:03 PM EST 1:41 AM EST
Length of Visible Light 10h 25m
Length of Day
9h 25m
Waxing Gibbous, 64% of the Moon is Illuminated
Dec 21
Waxing Gibbous
Dec 28
Full
Jan 4
Last Quarter
Jan 11
New
Jan 18
First Quarter

Hourly Weather History & Observations

Time (EST) Temp. Windchill Dew Point Humidity Pressure Visibility Wind Dir Wind Speed Gust Speed Precip Events Conditions
12:53 AM 33.1 °F 20.6 °F 25.0 °F 72% 29.58 in 10.0 mi WSW 23.0 mph 35.7 mph 0.00 in   Overcast
1:53 AM 32.0 °F 19.2 °F 25.0 °F 75% 29.60 in 9.0 mi WSW 23.0 mph 35.7 mph 0.00 in Snow Light Snow
2:53 AM 32.0 °F 18.4 °F 24.1 °F 73% 29.62 in 10.0 mi WSW 26.5 mph 36.8 mph 0.00 in Snow Light Snow
3:53 AM 30.0 °F 17.9 °F 26.1 °F 85% 29.63 in 4.0 mi WSW 18.4 mph 27.6 mph 0.00 in Snow Light Snow
4:53 AM 30.0 °F 16.9 °F 24.1 °F 79% 29.65 in 9.0 mi WSW 21.9 mph 35.7 mph 0.00 in   Overcast
5:53 AM 30.0 °F 16.0 °F 24.1 °F 79% 29.66 in 10.0 mi WSW 25.3 mph 32.2 mph 0.00 in   Overcast
6:53 AM 30.0 °F 17.5 °F 23.0 °F 75% 29.68 in 10.0 mi WSW 19.6 mph 34.5 mph 0.00 in   Overcast
7:53 AM 28.9 °F 17.3 °F 23.0 °F 78% 29.71 in 9.0 mi West 16.1 mph 34.5 mph 0.00 in Snow Light Snow
8:53 AM 28.9 °F 14.8 °F 21.9 °F 75% 29.74 in 8.0 mi West 24.2 mph 35.7 mph 0.00 in Snow Light Snow
9:53 AM 28.9 °F 14.0 °F 23.0 °F 78% 29.78 in 6.0 mi West 27.6 mph 36.8 mph 0.00 in Snow Light Snow
10:53 AM 28.0 °F 13.9 °F 21.9 °F 78% 29.81 in 6.0 mi West 23.0 mph 35.7 mph 0.00 in Snow Light Snow
11:53 AM 28.0 °F 13.9 °F 21.0 °F 75% 29.83 in 10.0 mi West 23.0 mph 33.4 mph 0.00 in   Overcast
12:53 PM 28.0 °F 12.8 °F 21.0 °F 75% 29.84 in 10.0 mi West 27.6 mph 38.0 mph N/A   Overcast
1:53 PM 28.0 °F 15.3 °F 21.0 °F 75% 29.86 in 10.0 mi West 18.4 mph 26.5 mph N/A   Overcast
2:53 PM 28.0 °F 15.3 °F 21.0 °F 75% 29.88 in 10.0 mi West 18.4 mph 28.8 mph N/A   Overcast
3:53 PM 28.0 °F 13.9 °F 21.9 °F 78% 29.92 in 10.0 mi West 23.0 mph 33.4 mph N/A   Overcast
4:53 PM 28.0 °F 14.9 °F 21.9 °F 78% 29.96 in 10.0 mi West 19.6 mph 36.8 mph N/A   Overcast
5:53 PM 28.9 °F 16.9 °F 21.9 °F 75% 29.99 in 10.0 mi West 17.3 mph 26.5 mph N/A   Overcast
6:53 PM 30.0 °F 18.3 °F 21.9 °F 72% 30.01 in 10.0 mi West 17.3 mph 31.1 mph N/A   Overcast
7:53 PM 30.0 °F 18.3 °F 21.9 °F 72% 30.04 in 10.0 mi West 17.3 mph 27.6 mph N/A   Overcast
8:53 PM 30.0 °F 18.7 °F 21.9 °F 72% 30.06 in 10.0 mi West 16.1 mph 27.6 mph N/A   Overcast
9:29 PM 30.2 °F 17.8 °F 23.0 °F 75% 30.06 in 10.0 mi West 19.6 mph 27.6 mph N/A   Overcast
9:53 PM 30.0 °F 18.7 °F 23.0 °F 75% 30.08 in 10.0 mi West 16.1 mph 25.3 mph N/A   Overcast
10:41 PM 30.2 °F 17.8 °F 23.0 °F 75% 30.08 in 10.0 mi West 19.6 mph 26.5 mph N/A   Overcast
10:53 PM 30.0 °F 19.1 °F 23.0 °F 75% 30.10 in 10.0 mi West 15.0 mph 26.5 mph N/A   Overcast
11:53 PM 30.0 °F 17.9 °F 23.0 °F 75% 30.12 in 10.0 mi West 18.4 mph 24.2 mph N/A   Overcast